This is the latest recevied weather packets stored in our database for station/object DO1SC. If no packets are shown the sender has not sent any weather packets the latest 10 day(s).
| Time | Temp. | Humidity | Pressure | Rain* | Wind** | Luminosity | Snow |
|---|---|---|---|---|---|---|---|
| 1777214120 | 10.56° C | 40% | 1024.5 hPa | - | - | 377 W/m² | - |
| 1777213531 | 10.56° C | 41% | 1024.4 hPa | - | - | 229 W/m² | - |
| 1777212922 | 11.11° C | 41% | 1024.5 hPa | - | - | 328 W/m² | - |
| 1777212334 | 10.56° C | 42% | 1024.6 hPa | - | - | 417 W/m² | - |
| 1777211726 | 10.56° C | 43% | 1024.5 hPa | - | - | 483 W/m² | - |
| 1777211118 | 10.56° C | 46% | 1024.6 hPa | - | - | 256 W/m² | - |
| 1777210529 | 10.56° C | 44% | 1024.6 hPa | - | - | 320 W/m² | - |
| 1777209919 | 10.56° C | 44% | 1024.8 hPa | - | - | 556 W/m² | - |
| 1777209334 | 10.56° C | 45% | 1024.8 hPa | - | - | 526 W/m² | - |
| 1777208722 | 10° C | 47% | 1024.8 hPa | - | - | 455 W/m² | - |
| 1777208134 | 10° C | 47% | 1024.8 hPa | - | - | 584 W/m² | - |
| 1777207526 | 10° C | 47% | 1024.8 hPa | - | - | 637 W/m² | - |
| 1777206921 | 10° C | 48% | 1024.9 hPa | - | - | 606 W/m² | - |
| 1777206329 | 10° C | 48% | 1025 hPa | - | - | 569 W/m² | - |
| 1777205721 | 10° C | 48% | 1025 hPa | - | - | 571 W/m² | - |
| 1777205135 | 10° C | 49% | 1025 hPa | - | - | 615 W/m² | - |
| 1777204523 | 9.44° C | 49% | 1025.1 hPa | - | - | 652 W/m² | - |
| 1777203935 | 10° C | 48% | 1025.1 hPa | - | - | 663 W/m² | - |
| 1777203330 | 10° C | 47% | 1025 hPa | - | - | 668 W/m² | - |
| 1777202718 | 9.44° C | 49% | 1025.1 hPa | - | - | 671 W/m² | - |
| 1777202130 | 9.44° C | 48% | 1025.2 hPa | - | - | 669 W/m² | - |
| 1777201522 | 8.89° C | 49% | 1025.1 hPa | - | - | 669 W/m² | - |
| 1777200934 | 8.89° C | 51% | 1025.1 hPa | - | - | 665 W/m² | - |
| 1777200325 | 9.44° C | 50% | 1025.2 hPa | - | - | 664 W/m² | - |
| 1777199717 | 8.89° C | 52% | 1025.1 hPa | - | - | 662 W/m² | - |
* Rain since midnight (hover to see other rain measurements)
** Current wind speed in m/s (hover to see current wind gust speed)